Location: Newark
(42.9277°N, 71.8621°W)
Time: 17:29:32
(UTC+00:00)

Vanguard 1 Rocket - Visible Passes

Search period start: 06 June 2020 00:00
Search period end: 16 June 2020 00:00
Orbit: 653 x 4224 km, 34.3° (Epoch: 05 June)

Date Brightness Start Highest point End Pass type
(mag) Time Alt. Az. Time Alt. Az. Time Alt. Az.
06 Jun 10.4 02:06:00 10° SSW 02:28:46 42° SSE 02:44:31 10° E visible
06 Jun 9.7 04:36:00 10° WSW 04:58:23 60° S 05:10:38 10° E visible
06 Jun 9.1 07:09:22 10° W 07:26:03 53° SSW 07:34:39 10° ESE visible
07 Jun 10.8 00:53:55 10° SSW 01:15:02 33° SE 01:31:43 10° E visible
07 Jun 10.0 03:21:05 10° SW 03:44:57 56° SSE 03:59:28 10° E visible
07 Jun 9.4 05:53:43 10° W 06:13:55 61° S 06:24:24 10° ESE visible
07 Jun 9.2 08:27:20 10° W 08:39:59 36° SSW 08:47:07 10° SSE visible
08 Jun 10.4 02:07:10 10° SW 02:31:06 48° SSE 02:47:43 10° E visible
08 Jun 9.7 04:38:03 10° WSW 05:01:02 63° S 05:13:42 10° E visible
08 Jun 9.2 07:11:48 10° W 07:28:42 50° SSW 07:37:33 10° SE visible
09 Jun 10.7 00:54:35 10° SSW 01:17:08 40° SSE 01:35:08 10° E visible
09 Jun 10.1 03:22:53 10° WSW 03:47:29 60° SSE 04:02:32 10° E visible
09 Jun 9.5 05:56:00 10° W 06:16:37 60° SSW 06:27:24 10° ESE visible
09 Jun 9.4 08:30:03 10° W 08:42:22 31° SW 08:49:38 10° SSE visible
10 Jun 10.4 02:08:40 10° SW 02:33:26 54° SSE 02:50:48 10° E visible
10 Jun 9.8 04:40:13 10° WSW 05:03:41 64° S 05:16:43 10° ESE visible
10 Jun 9.4 07:14:16 10° W 07:31:14 46° SSW 07:40:20 10° SE visible
11 Jun 10.7 00:55:42 10° SSW 01:19:14 46° SSE 01:38:19 10° E visible
11 Jun 10.1 03:24:53 10° WSW 03:49:59 64° S 04:05:32 10° E visible
11 Jun 9.5 05:58:20 10° W 06:19:12 58° SSW 06:30:18 10° ESE visible
11 Jun 9.6 08:32:57 10° W 08:44:38 26° SW 08:51:53 10° S visible
12 Jun 10.4 02:10:26 10° SW 02:35:46 59° SSE 02:53:48 10° E visible
12 Jun 9.8 04:42:28 10° W 05:06:16 64° S 05:19:41 10° ESE visible
12 Jun 9.5 07:16:46 10° W 07:33:36 41° SW 07:42:57 10° SSE visible
13 Jun 10.6 00:57:10 10° SW 01:21:20 52° SSE 01:41:21 10° E visible
13 Jun 10.1 03:27:01 10° WSW 03:52:29 66° S 04:08:30 10° E visible
13 Jun 9.6 06:00:42 10° W 06:21:42 54° SSW 06:33:07 10° SE visible
13 Jun 9.9 08:36:05 10° W 08:46:43 22° SW 08:53:47 10° S visible
14 Jun 10.4 02:12:26 10° WSW 02:38:05 63° SSE 02:56:44 10° E visible
14 Jun 9.9 04:44:46 10° W 05:08:47 63° SSW 05:22:35 10° ESE visible
14 Jun 9.7 07:19:22 10° W 07:35:50 36° SW 07:45:23 10° SSE visible
15 Jun 10.6 00:58:56 10° SW 01:23:27 57° SSE 01:44:17 10° E visible
15 Jun 10.2 03:29:17 10° WSW 03:54:58 67° S 04:11:25 10° ESE visible
15 Jun 9.8 06:03:06 10° W 06:24:02 50° SSW 06:35:48 10° SE visible
